﻿測定場所 (Monitoring sites),日付 (Measurement date),時間 (Measurement time),線量率 最大値 (max) μGy/h,線量率 最小値 (min) μGy/h,線量率 平均値 (average) μGy/h,
江戸川 (Edogawa),2014-09-28,23:01～24:00,0.0746,0.0677,0.0719,
江戸川 (Edogawa),2014-09-28,22:01～23:00,0.0752,0.0676,0.0717,
江戸川 (Edogawa),2014-09-28,21:01～22:00,0.0744,0.0680,0.0715,
江戸川 (Edogawa),2014-09-28,20:01～21:00,0.0761,0.0677,0.0714,
江戸川 (Edogawa),2014-09-28,19:01～20:00,0.0756,0.0669,0.0712,
江戸川 (Edogawa),2014-09-28,18:01～19:00,0.0760,0.0674,0.0713,
江戸川 (Edogawa),2014-09-28,17:01～18:00,0.0741,0.0687,0.0716,
江戸川 (Edogawa),2014-09-28,16:01～17:00,0.0747,0.0682,0.0711,
江戸川 (Edogawa),2014-09-28,15:01～16:00,0.0747,0.0669,0.0710,
江戸川 (Edogawa),2014-09-28,14:01～15:00,0.0731,0.0676,0.0711,
江戸川 (Edogawa),2014-09-28,13:01～14:00,0.0754,0.0663,0.0711,
江戸川 (Edogawa),2014-09-28,12:01～13:00,0.0762,0.0675,0.0710,
江戸川 (Edogawa),2014-09-28,11:01～12:00,0.0739,0.0685,0.0710,
江戸川 (Edogawa),2014-09-28,10:01～11:00,0.0743,0.0676,0.0712,
江戸川 (Edogawa),2014-09-28,09:01～10:00,0.0774,0.0678,0.0719,
江戸川 (Edogawa),2014-09-28,08:01～09:00,0.0767,0.0669,0.0713,
江戸川 (Edogawa),2014-09-28,07:01～08:00,0.0739,0.0686,0.0712,
江戸川 (Edogawa),2014-09-28,06:01～07:00,0.0750,0.0669,0.0711,
江戸川 (Edogawa),2014-09-28,05:01～06:00,0.0740,0.0677,0.0712,
江戸川 (Edogawa),2014-09-28,04:01～05:00,0.0749,0.0677,0.0712,
江戸川 (Edogawa),2014-09-28,03:01～04:00,0.0798,0.0678,0.0711,
江戸川 (Edogawa),2014-09-28,02:01～03:00,0.0746,0.0673,0.0709,
江戸川 (Edogawa),2014-09-28,01:01～02:00,0.0741,0.0669,0.0708,
江戸川 (Edogawa),2014-09-28,00:01～01:00,0.0741,0.0676,0.0709,
江戸川 (Edogawa),2014-09-27,23:01～24:00,0.0734,0.0667,0.0706,
江戸川 (Edogawa),2014-09-27,22:01～23:00,0.0751,0.0673,0.0711,
江戸川 (Edogawa),2014-09-27,21:01～22:00,0.0739,0.0673,0.0706,
江戸川 (Edogawa),2014-09-27,20:01～21:00,0.0741,0.0666,0.0705,
江戸川 (Edogawa),2014-09-27,19:01～20:00,0.0743,0.0672,0.0708,
江戸川 (Edogawa),2014-09-27,18:01～19:00,0.0749,0.0669,0.0709,
江戸川 (Edogawa),2014-09-27,17:01～18:00,0.0728,0.0659,0.0699,
江戸川 (Edogawa),2014-09-27,16:01～17:00,0.0744,0.0674,0.0704,
江戸川 (Edogawa),2014-09-27,15:01～16:00,0.0742,0.0662,0.0702,
江戸川 (Edogawa),2014-09-27,14:01～15:00,0.0746,0.0672,0.0701,
江戸川 (Edogawa),2014-09-27,13:01～14:00,0.0741,0.0666,0.0704,
江戸川 (Edogawa),2014-09-27,12:01～13:00,0.0731,0.0661,0.0705,
江戸川 (Edogawa),2014-09-27,11:01～12:00,0.0733,0.0646,0.0697,
江戸川 (Edogawa),2014-09-27,10:01～11:00,0.0744,0.0666,0.0706,
江戸川 (Edogawa),2014-09-27,09:01～10:00,0.0727,0.0666,0.0701,
江戸川 (Edogawa),2014-09-27,08:01～09:00,0.0733,0.0669,0.0703,
江戸川 (Edogawa),2014-09-27,07:01～08:00,0.0753,0.0668,0.0702,
江戸川 (Edogawa),2014-09-27,06:01～07:00,0.0730,0.0667,0.0695,
江戸川 (Edogawa),2014-09-27,05:01～06:00,0.0737,0.0657,0.0701,
江戸川 (Edogawa),2014-09-27,04:01～05:00,0.0741,0.0654,0.0698,
江戸川 (Edogawa),2014-09-27,03:01～04:00,0.0732,0.0668,0.0701,
江戸川 (Edogawa),2014-09-27,02:01～03:00,0.0731,0.0670,0.0700,
江戸川 (Edogawa),2014-09-27,01:01～02:00,0.0735,0.0671,0.0702,
江戸川 (Edogawa),2014-09-27,00:01～01:00,0.0739,0.0661,0.0703,
江戸川 (Edogawa),2014-09-26,23:01～24:00,0.0738,0.0669,0.0701,
江戸川 (Edogawa),2014-09-26,22:01～23:00,0.0732,0.0662,0.0703,
江戸川 (Edogawa),2014-09-26,21:01～22:00,0.0743,0.0674,0.0705,
江戸川 (Edogawa),2014-09-26,20:01～21:00,0.0733,0.0666,0.0703,
江戸川 (Edogawa),2014-09-26,19:01～20:00,0.0741,0.0665,0.0702,
江戸川 (Edogawa),2014-09-26,18:01～19:00,0.0744,0.0663,0.0701,
江戸川 (Edogawa),2014-09-26,17:01～18:00,0.0734,0.0658,0.0706,
江戸川 (Edogawa),2014-09-26,16:01～17:00,0.0740,0.0663,0.0704,
江戸川 (Edogawa),2014-09-26,15:01～16:00,0.0744,0.0663,0.0703,
江戸川 (Edogawa),2014-09-26,14:01～15:00,0.0738,0.0669,0.0702,
江戸川 (Edogawa),2014-09-26,13:01～14:00,0.0738,0.0665,0.0703,
江戸川 (Edogawa),2014-09-26,12:01～13:00,0.0742,0.0677,0.0704,
江戸川 (Edogawa),2014-09-26,11:01～12:00,0.0732,0.0665,0.0699,
江戸川 (Edogawa),2014-09-26,10:01～11:00,0.0742,0.0660,0.0700,
江戸川 (Edogawa),2014-09-26,09:01～10:00,0.0730,0.0670,0.0700,
江戸川 (Edogawa),2014-09-26,08:01～09:00,0.0726,0.0650,0.0694,
江戸川 (Edogawa),2014-09-26,07:01～08:00,0.0736,0.0669,0.0696,
江戸川 (Edogawa),2014-09-26,06:01～07:00,0.0721,0.0655,0.0696,
江戸川 (Edogawa),2014-09-26,05:01～06:00,0.0729,0.0659,0.0699,
江戸川 (Edogawa),2014-09-26,04:01～05:00,0.0752,0.0666,0.0712,
江戸川 (Edogawa),2014-09-26,03:01～04:00,0.0836,0.0707,0.0761,
江戸川 (Edogawa),2014-09-26,02:01～03:00,0.0889,0.0744,0.0835,
江戸川 (Edogawa),2014-09-26,01:01～02:00,0.0878,0.0690,0.0771,
江戸川 (Edogawa),2014-09-26,00:01～01:00,0.0738,0.0666,0.0701,
江戸川 (Edogawa),2014-09-25,23:01～24:00,0.0735,0.0660,0.0701,
江戸川 (Edogawa),2014-09-25,22:01～23:00,0.0749,0.0671,0.0701,
江戸川 (Edogawa),2014-09-25,21:01～22:00,0.0760,0.0678,0.0719,
江戸川 (Edogawa),2014-09-25,20:01～21:00,0.0750,0.0670,0.0714,
江戸川 (Edogawa),2014-09-25,19:01～20:00,0.0839,0.0694,0.0758,
江戸川 (Edogawa),2014-09-25,18:01～19:00,0.0884,0.0764,0.0828,
江戸川 (Edogawa),2014-09-25,17:01～18:00,0.0853,0.0659,0.0727,
江戸川 (Edogawa),2014-09-25,16:01～17:00,0.0732,0.0678,0.0700,
江戸川 (Edogawa),2014-09-25,15:01～16:00,0.0743,0.0670,0.0702,
江戸川 (Edogawa),2014-09-25,14:01～15:00,0.0733,0.0669,0.0703,
江戸川 (Edogawa),2014-09-25,13:01～14:00,0.0742,0.0649,0.0701,
江戸川 (Edogawa),2014-09-25,12:01～13:00,0.0775,0.0669,0.0708,
江戸川 (Edogawa),2014-09-25,11:01～12:00,0.0765,0.0689,0.0721,
江戸川 (Edogawa),2014-09-25,10:01～11:00,0.105,0.0702,0.0734,
江戸川 (Edogawa),2014-09-25,09:01～10:00,0.0768,0.0683,0.0722,
江戸川 (Edogawa),2014-09-25,08:01～09:00,0.0745,0.0678,0.0711,
江戸川 (Edogawa),2014-09-25,07:01～08:00,0.0751,0.0685,0.0715,
江戸川 (Edogawa),2014-09-25,06:01～07:00,0.0767,0.0691,0.0721,
江戸川 (Edogawa),2014-09-25,05:01～06:00,0.0818,0.0700,0.0732,
江戸川 (Edogawa),2014-09-25,04:01～05:00,0.0797,0.0671,0.0733,
江戸川 (Edogawa),2014-09-25,03:01～04:00,0.0786,0.0699,0.0735,
江戸川 (Edogawa),2014-09-25,02:01～03:00,0.0749,0.0686,0.0719,
江戸川 (Edogawa),2014-09-25,01:01～02:00,0.0758,0.0677,0.0709,
江戸川 (Edogawa),2014-09-25,00:01～01:00,0.0738,0.0677,0.0709,
江戸川 (Edogawa),2014-09-24,23:01～24:00,0.0753,0.0675,0.0715,
江戸川 (Edogawa),2014-09-24,22:01～23:00,0.0770,0.0681,0.0721,
江戸川 (Edogawa),2014-09-24,21:01～22:00,0.0793,0.0712,0.0750,
江戸川 (Edogawa),2014-09-24,20:01～21:00,0.0797,0.0710,0.0751,
江戸川 (Edogawa),2014-09-24,19:01～20:00,0.0792,0.0704,0.0741,
江戸川 (Edogawa),2014-09-24,18:01～19:00,0.0797,0.0704,0.0742,
江戸川 (Edogawa),2014-09-24,17:01～18:00,0.0839,0.0715,0.0759,
江戸川 (Edogawa),2014-09-24,16:01～17:00,0.0832,0.0705,0.0749,
江戸川 (Edogawa),2014-09-24,15:01～16:00,0.0802,0.0683,0.0726,
江戸川 (Edogawa),2014-09-24,14:01～15:00,0.0771,0.0673,0.0720,
江戸川 (Edogawa),2014-09-24,13:01～14:00,0.0750,0.0681,0.0719,
江戸川 (Edogawa),2014-09-24,12:01～13:00,0.0751,0.0693,0.0722,
江戸川 (Edogawa),2014-09-24,11:01～12:00,0.0754,0.0687,0.0721,
江戸川 (Edogawa),2014-09-24,10:01～11:00,0.0796,0.0699,0.0727,
江戸川 (Edogawa),2014-09-24,09:01～10:00,0.0802,0.0687,0.0728,
江戸川 (Edogawa),2014-09-24,08:01～09:00,0.0792,0.0690,0.0729,
江戸川 (Edogawa),2014-09-24,07:01～08:00,0.0768,0.0688,0.0727,
江戸川 (Edogawa),2014-09-24,06:01～07:00,0.0791,0.0681,0.0727,
江戸川 (Edogawa),2014-09-24,05:01～06:00,0.0766,0.0696,0.0724,
江戸川 (Edogawa),2014-09-24,04:01～05:00,0.0789,0.0689,0.0729,
江戸川 (Edogawa),2014-09-24,03:01～04:00,0.0767,0.0685,0.0725,
江戸川 (Edogawa),2014-09-24,02:01～03:00,0.0775,0.0697,0.0721,
江戸川 (Edogawa),2014-09-24,01:01～02:00,0.0756,0.0694,0.0722,
江戸川 (Edogawa),2014-09-24,00:01～01:00,0.0746,0.0686,0.0719,
江戸川 (Edogawa),2014-09-23,23:01～24:00,0.0755,0.0686,0.0719,
江戸川 (Edogawa),2014-09-23,22:01～23:00,0.0761,0.0686,0.0718,
江戸川 (Edogawa),2014-09-23,21:01～22:00,0.0758,0.0675,0.0718,
江戸川 (Edogawa),2014-09-23,20:01～21:00,0.0767,0.0697,0.0721,
江戸川 (Edogawa),2014-09-23,19:01～20:00,0.0754,0.0680,0.0718,
江戸川 (Edogawa),2014-09-23,18:01～19:00,0.0776,0.0683,0.0718,
江戸川 (Edogawa),2014-09-23,17:01～18:00,0.0748,0.0679,0.0714,
江戸川 (Edogawa),2014-09-23,16:01～17:00,0.0751,0.0694,0.0717,
江戸川 (Edogawa),2014-09-23,15:01～16:00,0.0747,0.0676,0.0716,
江戸川 (Edogawa),2014-09-23,14:01～15:00,0.0748,0.0670,0.0718,
江戸川 (Edogawa),2014-09-23,13:01～14:00,0.0763,0.0673,0.0716,
江戸川 (Edogawa),2014-09-23,12:01～13:00,0.0768,0.0690,0.0724,
江戸川 (Edogawa),2014-09-23,11:01～12:00,0.0754,0.0672,0.0715,
江戸川 (Edogawa),2014-09-23,10:01～11:00,0.0746,0.0685,0.0716,
江戸川 (Edogawa),2014-09-23,09:01～10:00,0.0769,0.0678,0.0720,
江戸川 (Edogawa),2014-09-23,08:01～09:00,0.0767,0.0684,0.0720,
江戸川 (Edogawa),2014-09-23,07:01～08:00,0.0744,0.0686,0.0718,
江戸川 (Edogawa),2014-09-23,06:01～07:00,0.0778,0.0690,0.0718,
江戸川 (Edogawa),2014-09-23,05:01～06:00,0.0742,0.0677,0.0715,
江戸川 (Edogawa),2014-09-23,04:01～05:00,0.0784,0.0674,0.0716,
江戸川 (Edogawa),2014-09-23,03:01～04:00,0.0738,0.0677,0.0707,
江戸川 (Edogawa),2014-09-23,02:01～03:00,0.0737,0.0683,0.0711,
江戸川 (Edogawa),2014-09-23,01:01～02:00,0.0741,0.0665,0.0711,
江戸川 (Edogawa),2014-09-23,00:01～01:00,0.0760,0.0683,0.0715,
江戸川 (Edogawa),2014-09-22,23:01～24:00,0.0790,0.0696,0.0731,
江戸川 (Edogawa),2014-09-22,22:01～23:00,0.0866,0.0718,0.0781,
江戸川 (Edogawa),2014-09-22,21:01～22:00,0.0884,0.0759,0.0819,
江戸川 (Edogawa),2014-09-22,20:01～21:00,0.0866,0.0686,0.0754,
江戸川 (Edogawa),2014-09-22,19:01～20:00,0.0755,0.0685,0.0721,
江戸川 (Edogawa),2014-09-22,18:01～19:00,0.0774,0.0683,0.0724,
江戸川 (Edogawa),2014-09-22,17:01～18:00,0.0767,0.0685,0.0727,
江戸川 (Edogawa),2014-09-22,16:01～17:00,0.0765,0.0696,0.0725,
江戸川 (Edogawa),2014-09-22,15:01～16:00,0.0780,0.0703,0.0729,
江戸川 (Edogawa),2014-09-22,14:01～15:00,0.0781,0.0687,0.0730,
江戸川 (Edogawa),2014-09-22,13:01～14:00,0.0788,0.0699,0.0734,
江戸川 (Edogawa),2014-09-22,12:01～13:00,0.0788,0.0694,0.0729,
江戸川 (Edogawa),2014-09-22,11:01～12:00,0.0764,0.0684,0.0727,
江戸川 (Edogawa),2014-09-22,10:01～11:00,0.0777,0.0690,0.0729,
江戸川 (Edogawa),2014-09-22,09:01～10:00,0.0785,0.0695,0.0726,
江戸川 (Edogawa),2014-09-22,08:01～09:00,0.0783,0.0690,0.0728,
江戸川 (Edogawa),2014-09-22,07:01～08:00,0.0766,0.0689,0.0727,
江戸川 (Edogawa),2014-09-22,06:01～07:00,0.0772,0.0686,0.0725,
江戸川 (Edogawa),2014-09-22,05:01～06:00,0.0757,0.0682,0.0720,
江戸川 (Edogawa),2014-09-22,04:01～05:00,0.0765,0.0697,0.0729,
江戸川 (Edogawa),2014-09-22,03:01～04:00,0.0793,0.0683,0.0729,
江戸川 (Edogawa),2014-09-22,02:01～03:00,0.0770,0.0689,0.0726,
江戸川 (Edogawa),2014-09-22,01:01～02:00,0.0780,0.0673,0.0726,
江戸川 (Edogawa),2014-09-22,00:01～01:00,0.0780,0.0691,0.0725,
